ASTRA DUMMY MASS (49494 NORAD) Tracking and Keplerian Element Data

This shows tracking and keplerian element data for the satellite.

Feedback or suggestion? Click here.




ElementValue
Catalog49494
NameASTRA DUMMY MASS
Epoch Orbit239
Epoch Day339.8707888
Epoch Year2021
RAAN180.2992
Inclination86.0091
Eccentricity0.0046822
Argument of Perigee230.196
Mean Anonmoly129.5163
Mean Motion15.3035451
Decay Rate6.044E-05
L11 49494U 21108A 21339.87078880 .00006044 00000+0 19778-3 0 9994
L22 49494 86.0091 180.2992 0046822 230.1960 129.5163 15.30354510 2398

Live tracking and technical data element details for ASTRA DUMMY MASS (NORAD 49494). ASTRA DUMMY MASS can be tracked NOW for your location showing map with azimuth and elevation plus other details from your city location.

Track the satellite on the map from your city or location and see movement details for azimuth, elevation, latitude, longitude, range, height, and movement on the map or in text.







IsCatalogInMostPopularTable: catalog: 49494, numindb: 3
Update: records affected: 1



GetName: 49494 ASTRA DUMMY MASS

Hit Count: updated at: Wed, 08 Dec 2021 16:07:40 GMT